Regional Weather Roundup
Issued by NWS

Home | Current Version | Previous Version | Graphics & Text | Print | Product List | Glossary On
Versions: 1 2 3 4 5 6 7 8 9 10 11 12 13 14 15 16 17 18 19 20 21 22 23 24 25 26 27 28 29 30 31 32 33 34 35 36 37 38 39 40 41 42 43 44 45 46 47 48 49 50
000
ASUS43 KOAX 051410
RWRNE

WEATHER ROUNDUP FOR NEBRASKA
NATIONAL WEATHER SERVICE OMAHA NE
900 AM CDT THU MAY 05 2016

NOTES: SATELLITE DATA IS BEING USED TO AUGMENT CLOUD COVER ABOVE
       12000 FEET.
       "FAIR" INDICATES FEW OR NO CLOUDS BELOW 12,000 FEET WITH NO
       SIGNIFICANT WEATHER AND/OR OBSTRUCTIONS TO VISIBILITY.

  * THESE STATIONS DO NOT REPORT WEATHER SUCH AS RAIN...SNOW OR FOG.

NEZ001>004-019>022-054>056-051500-
NEBRASKA PANHANDLE

CITY           SKY/WX    TMP DP  RH WIND       PRES   REMARKS
SCOTTSBLUFF    SUNNY     58  43  57 E8        30.06S
ALLIANCE       SUNNY     56  47  71 SE9       30.06S
CHADRON        SUNNY     62  45  53 W3        30.00R
KIMBALL        CLOUDY    55  44  67 W8        30.12S
SIDNEY         SUNNY     60  45  57 SW12      30.09F
$$

NEZ057>060-069>072-079>082-051500-
SOUTHWEST NEBRASKA

CITY           SKY/WX    TMP DP  RH WIND       PRES   REMARKS
NORTH PLATTE   SUNNY     54  44  69 SE3       30.11R
IMPERIAL       SUNNY     57  45  64 SW6       30.11S
MCCOOK         SUNNY     53  46  77 CALM      30.12R
OGALLALA       SUNNY     54  45  71 CALM      30.10F
$$

NEZ005>010-023>029-035>040-094-051500-
NORTH CENTRAL NEBRASKA

CITY           SKY/WX    TMP DP  RH WIND       PRES   REMARKS
VALENTINE      SUNNY     62  41  46 S7        30.06S
AINSWORTH      SUNNY     62  43  49 SW10      30.07S
BROKEN BOW     SUNNY     56  42  59 CALM      30.10S
O`NEILL        SUNNY     59  45  59 SW6       30.08S
ORD            SUNNY     52  43  71 CALM      30.10R
THEDFORD       SUNNY     61  44  54 S8        30.09S
$$

NEZ041-046>049-061>064-073>077-083>087-051500-
SOUTH CENTRAL NEBRASKA

CITY           SKY/WX    TMP DP  RH WIND       PRES   REMARKS
GRAND ISLAND   SUNNY     57  41  55 W3        30.12R
AURORA         SUNNY     59  41  52 W3        30.11S
HASTINGS       SUNNY     60  41  49 W5        30.11R
HEBRON         SUNNY     55  43  65 CALM      30.12R
HOLDREGE       SUNNY     59  40  50 SW3       30.12S
KEARNEY *      SUNNY     57  43  58 S5        30.12S
YORK           SUNNY     57  39  51 W6        30.11S
$$

NEZ011>018-030>034-042>045-051500-
NORTHEAST NEBRASKA

CITY           SKY/WX    TMP DP  RH WIND       PRES   REMARKS
NORFOLK        SUNNY     55  41  59 CALM      30.09R
ALBION         SUNNY     55  45  70 CALM      30.10S
BLAIR          SUNNY     59  42  53 CALM      30.08S
COLUMBUS *     SUNNY     54  37  54 SW5       30.11S
FREMONT        SUNNY     54  44  70 W3        30.10S
TEKAMAH        SUNNY     55  43  63 CALM      30.08S
WAYNE          SUNNY     56  44  63 CALM      30.09S
$$

NEZ050>053-065>068-078-088>093-051500-
SOUTHEAST NEBRASKA

CITY           SKY/WX    TMP DP  RH WIND       PRES   REMARKS
LINCOLN        SUNNY     56  41  57 CALM      30.11R
OMAHA EPPLEY   MOSUNNY   56  44  64 N3        30.09R
BEATRICE       SUNNY     55  44  67 W5        30.11
FALLS CITY     SUNNY     56  45  66 NW3       30.08R
NEBRASKA CITY  SUNNY     57  40  53 NE3       30.09R
PLATTSMOUTH    SUNNY     57  44  62 CALM      30.09R
$$

NEZ044-045-051>053-067-051500-
OMAHA AREA

CITY           SKY/WX    TMP DP  RH WIND       PRES   REMARKS
OMAHA EPPLEY   MOSUNNY   56  44  64 N3        30.09R
BLAIR          SUNNY     59  42  53 CALM      30.08S
FREMONT        SUNNY     54  44  70 W3        30.10S
MILLARD        SUNNY     57  45  62 CALM      30.08S
OFFUTT AFB     SUNNY     56  45  66 VRB1      30.08R
PLATTSMOUTH    SUNNY     57  44  62 CALM      30.09R
WAHOO          FAIR      57  42  56 NW5       30.09S
$$



USA.gov is the U.S. government's official web portal to all federal, state and local government web resources and services.